Location: Olda
(45.8833°N, 9.5500°E)
Time: 20:43:20
(UTC+00:00)

SAR-Lupe-1 - Pass Details

Date: 03 March 2021
Orbit: 482 x 483 km, 98.2° (Epoch: 30 March)

Event Time Altitude Azimuth Distance (km) Brightness Sun altitude
Rises 18:24:38 0° 12° (NNE) 2,559 7.7 -13.5°
Reaches altitude 10° 18:26:43 10° 11° (N) 1,674 6.7 -13.9°
Maximum altitude 18:30:18 77° 285° (WNW) 502 4.2 -14.5°
Drops below altitude 10° 18:33:52 10° 200° (SSW) 1,659 6.9 -15.1°
Sets 18:35:55 0° 198° (SSW) 2,534 7.9 -15.5°
